VR2R-13 Weather Reports


Display with metric or nautical units.
time (UTC)temp
F
wind
direction
speed
MPH
gust
MPH
rain 1hr
in
rain 24hr
in
rain mn
in
humidity
%
barometer
mb
20260901040520 69 55 27.0 36.0 0.03 0.03 0.00 98 901.1
20260901040421 69 52 22.0 35.0 0.02 0.02 0.00 98 901.3
20260901035821 69 80 25.0 34.0 0.05 0.05 0.00 98 901.6
20260901035021 69 49 6.0 32.0 0.00 0.00 0.00 99 901.5
20260901034621 69 64 26.0 35.0 0.03 0.03 0.00 98 901.7
20260901034520 69 45 23.0 29.0 0.02 0.02 0.00 98 901.4
20260901034022 69 52 23.0 33.0 0.07 0.07 0.00 98 901.7
20260901034020 69 61 23.0 33.0 0.07 0.07 0.00 98 901.7
20260901033520 69 45 25.0 33.0 0.03 0.03 0.00 98 901.7
20260901033421 69 50 23.0 33.0 0.03 0.03 0.00 98 901.7
20260901033020 69 58 6.0 26.0 0.00 0.00 0.00 98 901.8
20260901032821 69 55 25.0 32.0 0.07 0.07 0.00 98 901.8
20260901032520 69 46 26.0 32.0 0.06 0.06 0.00 98 901.7
20260901032221 69 31 22.0 29.0 0.03 0.03 0.00 98 902.0
20260901032020 69 55 23.0 29.0 0.03 0.03 0.00 98 902.0
20260901031621 69 62 20.0 28.0 0.01 0.01 0.00 98 902.0
20260901031520 69 45 18.0 28.0 0.01 0.01 0.00 98 901.9
20260901031021 69 56 20.0 28.0 0.00 0.00 0.00 99 902.1
20260901030520 69 53 21.0 26.0 0.03 0.03 0.00 98 902.1
20260901030421 69 54 20.0 26.0 0.03 0.03 0.00 98 902.1
20260901030020 69 49 17.0 24.0 0.01 0.01 0.00 98 902.3
20260901025821 69 54 11.0 22.0 0.00 0.00 0.00 98 902.4
20260901025520 69 47 19.0 24.0 0.01 0.01 0.00 98 902.2
20260901025221 69 44 10.0 22.0 0.00 0.00 0.00 98 902.3
20260901025020 69 58 12.0 24.0 0.00 0.00 0.00 98 902.4
20260901024621 69 55 16.0 24.0 0.07 0.07 0.00 98 902.3
20260901024520 69 70 16.0 24.0 0.07 0.07 0.00 98 902.4
20260901024021 69 49 17.0 24.0 0.03 0.03 0.00 98 902.4
20260901023519 70 49 18.0 22.0 0.02 0.02 0.00 98 902.3
20260901023421 70 52 17.0 22.0 0.02 0.02 0.00 98 902.3
20260901023019 70 43 18.0 22.0 0.02 0.02 0.00 98 902.3
20260901022821 70 58 15.0 22.0 0.01 0.01 0.00 98 902.3
20260901022520 69 57 4.0 20.0 0.00 0.00 0.00 98 902.4
20260901022221 70 45 15.0 25.0 0.02 0.02 0.00 98 902.4
20260901022020 69 62 17.0 25.0 0.01 0.01 0.00 98 902.4
20260901021621 69 58 15.0 22.0 0.01 0.01 0.00 98 902.3
20260901021519 69 51 15.0 22.0 0.01 0.01 0.00 98 902.4
20260901021021 69 56 16.0 22.0 0.00 0.00 0.00 98 902.3
20260901021019 69 49 16.0 22.0 0.00 0.00 0.00 98 902.3
20260901020519 69 82 14.0 20.0 0.00 0.00 0.00 98 902.3
20260901020421 69 34 14.0 20.0 0.00 0.00 0.00 98 902.3
20260901015519 70 45 5.0 17.0 0.00 0.00 0.00 98 902.3
20260901015220 69 57 16.0 21.0 0.00 0.00 0.00 98 902.2
20260901015019 69 45 16.0 21.0 0.00 0.00 0.00 98 902.2
20260901014620 70 31 16.0 20.0 0.00 0.00 0.00 98 902.3
20260901014520 70 73 16.0 20.0 0.00 0.00 0.00 98 902.4
20260901014021 70 52 15.0 19.0 0.00 0.00 0.00 98 902.4
20260901014019 70 52 15.0 19.0 0.00 0.00 0.00 98 902.3
20260901013519 69 33 1.0 15.0 0.00 0.00 0.00 98 902.4
20260901013420 70 59 14.0 20.0 0.00 0.00 0.00 98 902.3
20260901013019 70 54 14.0 20.0 0.00 0.00 0.00 98 902.4
20260901012820 69 66 15.0 20.0 0.00 0.00 0.00 98 902.5
20260901012519 69 58 14.0 19.0 0.00 0.00 0.00 98 902.4
20260901012220 69 49 14.0 18.0 0.00 0.00 0.00 98 902.5
20260901012019 69 61 5.0 17.0 0.00 0.00 0.00 98 902.5
20260901011620 70 63 14.0 19.0 0.01 0.01 0.00 98 902.5
20260901011519 70 56 12.0 19.0 0.01 0.01 0.00 98 902.6
20260901011021 70 39 14.0 18.0 0.00 0.00 0.00 98 902.6
20260901011019 70 60 14.0 18.0 0.00 0.00 0.00 98 902.6
20260901010519 70 56 12.0 17.0 0.01 0.01 0.00 98 902.7
20260901010420 70 50 11.0 17.0 0.01 0.01 0.00 98 902.7
20260901010019 69 51 12.0 15.0 0.01 0.01 0.00 98 902.6
20260901005820 70 80 10.0 15.0 0.01 0.01 0.00 98 902.7
20260901005519 70 55 9.0 15.0 0.00 0.00 0.00 98 902.7
20260901005220 70 55 9.0 14.0 0.00 0.00 0.00 98 902.7
20260901005019 69 59 10.0 13.0 0.00 0.00 0.00 98 902.7
20260901004620 69 63 7.0 13.0 0.00 0.00 0.00 98 902.7
20260901004519 69 44 5.0 13.0 0.00 0.00 0.00 98 902.7
20260901004020 69 55 8.0 16.0 0.02 0.02 0.00 98 902.6
20260901003519 69 19 8.0 16.0 0.02 0.02 0.00 98 902.6
20260901003420 69 44 8.0 16.0 0.01 0.01 0.00 98 902.6
20260901003019 69 34 12.0 16.0 0.01 0.01 0.00 98 902.6
20260901002820 70 55 10.0 14.0 0.01 0.01 0.00 98 902.5
20260901002519 70 62 8.0 14.0 0.01 0.01 0.00 98 902.5
20260901002220 70 63 11.0 14.0 0.00 0.00 0.00 98 902.5
20260901002020 70 51 5.0 14.0 0.00 0.00 0.00 98 902.5
20260901001620 69 71 10.0 16.0 0.01 0.01 0.00 98 902.5
20260901001518 69 52 9.0 13.0 0.01 0.01 0.00 98 902.5
20260901001020 69 34 7.0 12.0 0.00 0.00 0.00 98 902.5
20260901001018 69 39 7.0 12.0 0.00 0.00 0.00 98 902.5
20260901000518 69 38 7.0 12.0 0.01 0.01 0.00 98 902.4
20260901000420 69 70 7.0 12.0 0.00 0.00 0.00 98 902.5
20260901000018 69 19 8.0 12.0 0.00 0.00 0.00 98 902.4
20260831235219 69 47 13.0 16.0 0.01 0.01 0.00 98 902.3
20260831235018 69 37 11.0 16.0 0.01 0.01 0.00 98 902.3
20260831234619 69 31 11.0 19.0 0.00 0.00 0.00 98 902.3
20260831234518 69 59 11.0 19.0 0.00 0.00 0.00 98 902.3
20260831234020 69 59 12.0 19.0 0.00 0.00 0.00 98 902.2
20260831234018 69 51 12.0 19.0 0.00 0.00 0.00 98 902.2
20260831233520 69 63 10.0 15.0 0.00 0.00 0.00 98 902.2
20260831233419 69 60 10.0 15.0 0.00 0.00 0.00 98 902.2
20260831233018 69 71 2.0 13.0 0.00 0.00 0.00 99 902.1
20260831232518 69 41 14.0 19.0 0.00 0.00 0.00 98 901.9
20260831232219 69 31 15.0 19.0 0.00 0.00 0.00 98 901.9
20260831232018 69 44 1.0 18.0 0.00 0.00 0.00 98 901.8
20260831231619 69 52 14.0 18.0 0.00 0.00 0.00 98 901.8
20260831231518 69 49 7.0 18.0 0.00 0.00 0.00 98 901.8
20260831231020 69 51 15.0 20.0 0.00 0.00 0.00 98 901.8
20260831231018 69 53 15.0 20.0 0.00 0.00 0.00 98 901.8
20260831230518 69 53 15.0 20.0 0.00 0.00 0.00 98 901.7
20260831230419 69 32 14.0 20.0 0.00 0.00 0.00 98 901.6
20260831230018 69 49 13.0 18.0 0.00 0.00 0.00 98 901.7
20260831225819 69 45 13.0 21.0 0.00 0.00 0.00 98 901.7
20260831225518 69 53 15.0 21.0 0.00 0.00 0.00 98 901.7
20260831225219 69 38 13.0 21.0 0.00 0.00 0.00 98 901.7
20260831225018 69 64 15.0 21.0 0.00 0.00 0.00 98 901.7
20260831224619 69 49 15.0 20.0 0.00 0.00 0.00 98 901.5
20260831224518 69 42 14.0 18.0 0.00 0.00 0.00 98 901.6
20260831224019 69 47 12.0 17.0 0.00 0.00 0.00 98 901.6
20260831223518 69 42 12.0 17.0 0.00 0.00 0.00 98 901.6
20260831223419 69 55 12.0 17.0 0.00 0.00 0.00 98 901.6
20260831223018 69 42 12.0 17.0 0.00 0.00 0.00 98 901.6
20260831222819 69 51 12.0 17.0 0.00 0.00 0.00 98 901.6
20260831222518 69 41 13.0 17.0 0.00 0.00 0.00 98 901.6
20260831222219 69 57 12.0 17.0 0.00 0.00 0.00 98 901.7
20260831222018 69 58 12.0 15.0 0.00 0.00 0.00 98 901.7
20260831221619 69 40 10.0 14.0 0.00 0.00 0.00 98 901.6
20260831221518 69 38 11.0 14.0 0.00 0.00 0.00 98 901.6
20260831221019 69 40 12.0 17.0 0.00 0.00 0.00 98 901.5
20260831221017 69 40 12.0 17.0 0.00 0.00 0.00 98 901.6
20260831220517 69 55 10.0 17.0 0.00 0.00 0.00 98 901.6
20260831220419 69 43 10.0 17.0 0.00 0.00 0.00 98 901.6
20260831220017 69 53 12.0 17.0 0.00 0.00 0.00 98 901.6
20260831215819 69 50 12.0 16.0 0.00 0.00 0.00 98 901.6
20260831215518 69 47 10.0 16.0 0.00 0.00 0.00 98 901.6
20260831215219 69 41 11.0 19.0 0.00 0.00 0.00 98 901.6
20260831215017 69 48 11.0 20.0 0.00 0.00 0.00 98 901.6
20260831214619 69 54 13.0 20.0 0.00 0.00 0.00 98 901.6
20260831214517 69 60 14.0 20.0 0.00 0.00 0.00 98 901.5
20260831214019 69 70 12.0 19.0 0.00 0.00 0.00 98 901.5
20260831214017 69 57 12.0 19.0 0.00 0.00 0.00 98 901.5
20260831213517 69 28 11.0 15.0 0.00 0.00 0.00 98 901.5
20260831213418 69 49 10.0 15.0 0.00 0.00 0.00 98 901.5
20260831213017 69 36 10.0 18.0 0.01 0.01 0.00 98 901.4
20260831212818 69 55 12.0 18.0 0.01 0.01 0.00 98 901.4
20260831212517 69 58 10.0 17.0 0.01 0.01 0.00 98 901.3
20260831212218 69 64 9.0 17.0 0.01 0.01 0.00 98 901.3
20260831212018 69 50 10.0 18.0 0.01 0.01 0.00 98 901.3
20260831211517 69 35 10.0 18.0 0.01 0.01 0.00 98 901.3
20260831211019 69 52 10.0 16.0 0.00 0.00 0.00 98 901.3
20260831211017 69 45 10.0 16.0 0.00 0.00 0.00 98 901.2
20260831210517 69 46 10.0 16.0 0.00 0.00 0.00 98 901.3
20260831210418 69 39 10.0 16.0 0.00 0.00 0.00 98 901.2
20260831210017 69 53 10.0 18.0 0.00 0.00 0.00 98 901.2
20260831205818 69 61 11.0 18.0 0.00 0.00 0.00 98 901.3
20260831205517 69 71 13.0 18.0 0.00 0.00 0.00 98 901.2
20260831205218 69 37 10.0 19.0 0.00 0.00 0.00 98 901.1
20260831205017 69 65 10.0 19.0 0.00 0.00 0.00 98 901.2
20260831204618 69 23 11.0 19.0 0.00 0.00 0.00 98 901.1
20260831204517 69 36 12.0 19.0 0.00 0.00 0.00 98 901.2
20260831204018 69 56 10.0 17.0 0.00 0.00 0.00 98 901.3
20260831203517 69 56 10.0 18.0 0.00 0.00 0.00 98 901.3
20260831203418 69 64 10.0 18.0 0.00 0.00 0.00 98 901.3
20260831203017 69 33 10.0 18.0 0.00 0.00 0.00 98 901.3
20260831202818 69 44 10.0 18.0 0.00 0.00 0.00 98 901.3
20260831202517 69 62 12.0 16.0 0.00 0.00 0.00 98 901.3
20260831202218 69 90 10.0 19.0 0.00 0.00 0.00 98 901.2
20260831202016 69 21 10.0 19.0 0.00 0.00 0.00 98 901.2
20260831201618 69 68 11.0 19.0 0.00 0.00 0.00 98 901.3
20260831201516 69 58 12.0 19.0 0.00 0.00 0.00 98 901.3
20260831201018 69 51 13.0 18.0 0.00 0.00 0.00 98 901.3
20260831201016 69 50 13.0 18.0 0.00 0.00 0.00 98 901.3
20260831200516 69 61 11.0 17.0 0.00 0.00 0.00 98 901.4
20260831200418 69 62 11.0 17.0 0.00 0.00 0.00 98 901.5
20260831195818 69 42 11.0 17.0 0.00 0.00 0.00 98 901.5
20260831195516 69 18 10.0 14.0 0.00 0.00 0.00 98 901.5
20260831194617 69 65 15.0 23.0 0.02 0.02 0.00 98 901.4
20260831194018 69 66 15.0 23.0 0.02 0.02 0.00 98 901.5
20260831194016 69 55 15.0 23.0 0.02 0.02 0.00 98 901.5
20260831193516 69 49 13.0 19.0 0.01 0.01 0.00 98 901.5
20260831193418 69 42 12.0 19.0 0.01 0.01 0.00 98 901.5
20260831193016 69 52 14.0 19.0 0.01 0.01 0.00 98 901.4
20260831192818 69 49 13.0 19.0 0.01 0.01 0.00 98 901.5
20260831192516 69 66 11.0 18.0 0.01 0.01 0.00 98 901.6
20260831192217 69 54 12.0 18.0 0.01 0.01 0.00 98 901.5
20260831192016 69 27 12.0 17.0 0.00 0.00 0.00 98 901.5
20260831191617 69 44 10.0 17.0 0.00 0.00 0.00 98 901.7
20260831191516 69 57 11.0 19.0 0.00 0.00 0.00 98 901.7
20260831191018 69 58 10.0 19.0 0.00 0.00 0.00 98 901.7
20260831191016 69 79 10.0 19.0 0.00 0.00 0.00 98 901.7
20260831190516 69 49 12.0 18.0 0.00 0.00 0.00 98 901.6
20260831190417 69 49 11.0 17.0 0.00 0.00 0.00 98 901.7
20260831190016 69 58 12.0 18.0 0.00 0.00 0.00 98 901.7
20260831185817 69 45 12.0 17.0 0.00 0.00 0.00 98 901.6
20260831185516 69 51 10.0 18.0 0.00 0.00 0.00 98 901.7
20260831185016 69 42 12.0 18.0 0.00 0.00 0.00 98 901.7
20260831184617 69 53 13.0 19.0 0.00 0.00 0.00 98 901.7
20260831184516 69 54 13.0 19.0 0.00 0.00 0.00 98 901.6
20260831184018 69 42 2.0 19.0 0.00 0.00 0.00 99 901.7
20260831184016 69 50 2.0 19.0 0.00 0.00 0.00 99 901.6
20260831183516 69 66 14.0 21.0 0.00 0.00 0.00 98 901.8
20260831183417 69 50 14.0 21.0 0.00 0.00 0.00 98 901.7
20260831183016 69 59 15.0 21.0 0.00 0.00 0.00 98 901.6
20260831182817 69 50 7.0 20.0 0.00 0.00 0.00 99 901.5
20260831182516 69 38 16.0 22.0 0.00 0.00 0.00 98 901.6
20260831182217 69 46 14.0 22.0 0.00 0.00 0.00 98 901.7
20260831182016 69 54 16.0 22.0 0.00 0.00 0.00 98 901.8
20260831181617 69 55 16.0 21.0 0.00 0.00 0.00 98 901.8
20260831181516 69 36 16.0 21.0 0.00 0.00 0.00 98 901.7
20260831181017 69 48 15.0 20.0 0.00 0.00 0.00 98 901.9
20260831180516 69 50 15.0 20.0 0.00 0.00 0.00 98 902.0
20260831180417 69 48 14.0 20.0 0.00 0.00 0.00 98 901.9
20260831180016 69 41 15.0 20.0 0.00 0.00 0.00 98 902.0
20260831175817 69 63 14.0 20.0 0.00 0.00 0.00 98 902.0
20260831175516 69 64 15.0 20.0 0.00 0.00 0.00 98 902.1
20260831175217 69 45 14.0 21.0 0.00 0.00 0.00 98 902.1
20260831175016 69 47 14.0 21.0 0.00 0.00 0.00 98 902.2
20260831174617 69 58 12.0 21.0 0.00 0.00 0.00 98 902.2
20260831174516 69 53 13.0 21.0 0.00 0.00 0.00 98 902.1
20260831174017 69 50 1.0 13.0 0.00 0.00 0.00 98 902.3
20260831174015 69 64 1.0 13.0 0.00 0.00 0.00 98 902.3
20260831173515 69 54 13.0 20.0 0.00 0.00 0.00 98 902.3
20260831173417 69 36 13.0 20.0 0.00 0.00 0.00 98 902.2
20260831172817 69 68 11.0 20.0 0.00 0.00 0.00 98 902.3
20260831172515 69 59 14.0 20.0 0.00 0.00 0.00 98 902.4
20260831172015 69 60 12.0 19.0 0.00 0.00 0.00 98 902.4
20260831171617 69 58 13.0 18.0 0.00 0.00 0.00 98 902.4
20260831171516 69 35 12.0 18.0 0.00 0.00 0.00 98 902.3
20260831171017 69 48 12.0 16.0 0.00 0.00 0.00 98 902.4
20260831171015 69 50 12.0 16.0 0.00 0.00 0.00 98 902.5
20260831170515 69 40 11.0 15.0 0.00 0.00 0.00 98 902.5
20260831170416 69 40 11.0 15.0 0.00 0.00 0.00 98 902.5
20260831170015 69 48 10.0 17.0 0.00 0.00 0.00 98 902.6
20260831165816 69 27 10.0 17.0 0.00 0.00 0.00 98 902.6
20260831165516 69 41 10.0 17.0 0.00 0.00 0.00 98 902.5
20260831164616 69 41 11.0 17.0 0.00 0.00 0.00 98 902.6
20260831164516 69 52 11.0 17.0 0.00 0.00 0.00 98 902.6
20260831164017 69 37 13.0 17.0 0.00 0.00 0.00 98 902.6
20260831164015 69 42 13.0 17.0 0.00 0.00 0.00 98 902.7
20260831163515 69 47 11.0 15.0 0.00 0.00 0.00 98 902.7
20260831163416 69 26 11.0 15.0 0.00 0.00 0.00 98 902.7
20260831163015 69 70 10.0 15.0 0.00 0.00 0.00 98 902.8
20260831162816 69 35 10.0 15.0 0.00 0.00 0.00 98 902.8
20260831162515 69 57 4.0 11.0 0.00 0.00 0.00 98 902.9
20260831162216 69 75 6.0 9.0 0.00 0.00 0.00 98 903.0
20260831162015 69 69 1.0 8.0 0.00 0.00 0.00 99 903.0
20260831161616 69 53 7.0 16.0 0.00 0.00 0.00 98 903.0
20260831161516 69 40 9.0 16.0 0.00 0.00 0.00 98 903.1
20260831161016 69 79 12.0 16.0 0.00 0.00 0.00 98 903.1
20260831160515 69 51 10.0 16.0 0.00 0.00 0.00 99 903.1
20260831160416 69 42 5.0 16.0 0.00 0.00 0.00 99 903.1
20260831154616 69 54 13.0 17.0 0.00 0.00 0.00 98 903.1
20260831154516 69 63 12.0 17.0 0.00 0.00 0.00 98 903.1
20260831154016 69 66 12.0 16.0 0.00 0.00 0.00 98 903.1
20260831154014 69 40 12.0 16.0 0.00 0.00 0.00 98 903.1
20260831153514 69 44 9.0 12.0 0.00 0.00 0.00 98 903.2
20260831153014 69 50 7.0 11.0 0.00 0.00 0.00 98 903.3
20260831152816 69 34 8.0 11.0 0.00 0.00 0.00 98 903.4
20260831152514 69 42 7.0 11.0 0.00 0.00 0.00 98 903.4
20260831152215 69 33 6.0 11.0 0.00 0.00 0.00 98 903.4
20260831152014 69 12 7.0 11.0 0.00 0.00 0.00 98 903.4
20260831151615 69 27 5.0 10.0 0.00 0.00 0.00 98 903.5
20260831151516 69 37 5.0 10.0 0.00 0.00 0.00 98 903.5
20260831151016 69 48 7.0 10.0 0.00 0.00 0.00 98 903.5
20260831151014 69 25 7.0 10.0 0.00 0.00 0.00 98 903.5
20260831150514 69 360 6.0 10.0 0.00 0.00 0.00 98 903.5
20260831150415 69 53 6.0 10.0 0.00 0.00 0.00 98 903.5
20260831150014 69 56 6.0 10.0 0.00 0.00 0.00 98 903.5
20260831145815 69 59 5.0 10.0 0.00 0.00 0.00 98 903.5
20260831145514 69 22 4.0 9.0 0.00 0.00 0.00 98 903.5
20260831145215 69 21 5.0 9.0 0.00 0.00 0.00 99 903.5
20260831145014 69 42 3.0 9.0 0.00 0.00 0.00 99 903.5
20260831143014 69 45 9.0 14.0 0.00 0.00 0.00 98 903.2
20260831142815 69 32 9.0 13.0 0.00 0.00 0.00 98 903.2
20260831142215 69 26 9.0 16.0 0.00 0.00 0.00 98 903.1
20260831142014 69 51 6.0 16.0 0.00 0.00 0.00 98 903.2
20260831141615 69 55 4.0 11.0 0.00 0.00 0.00 98 903.1
20260831141514 69 46 0.0 0.0 0.00 0.00 0.00 98 903.1
20260831141015 69 55 12.0 17.0 0.00 0.00 0.00 98 903.1
20260831140513 69 54 12.0 17.0 0.00 0.00 0.00 98 903.1
20260831140415 69 53 13.0 17.0 0.00 0.00 0.00 98 903.2
20260831140014 69 51 9.0 18.0 0.00 0.00 0.00 98 903.2
20260831135815 69 45 12.0 16.0 0.00 0.00 0.00 98 903.1
20260831135513 69 40 12.0 16.0 0.00 0.00 0.00 98 903.1
20260831135215 69 48 12.0 16.0 0.00 0.00 0.00 98 903.2
20260831135013 69 64 0.0 0.0 0.00 0.00 0.00 98 903.2
20260831134514 69 69 12.0 18.0 0.00 0.00 0.00 98 903.2
20260831134015 69 62 12.0 16.0 0.00 0.00 0.00 98 903.2
20260831134013 69 51 12.0 16.0 0.00 0.00 0.00 98 903.1
20260831133513 69 55 12.0 19.0 0.00 0.00 0.00 98 903.3
20260831133415 69 44 12.0 19.0 0.00 0.00 0.00 98 903.3
20260831133014 69 34 12.0 19.0 0.00 0.00 0.00 98 903.1
20260831132815 69 57 10.0 17.0 0.00 0.00 0.00 98 903.3
20260831132513 69 28 10.0 17.0 0.00 0.00 0.00 98 903.1
20260831132215 69 43 11.0 17.0 0.00 0.00 0.00 98 903.1
20260831132013 69 38 10.0 14.0 0.00 0.00 0.00 98 903.1
20260831131615 69 29 9.0 14.0 0.00 0.00 0.00 98 903.2
20260831131513 70 30 9.0 13.0 0.00 0.00 0.00 98 903.1
20260831131015 70 53 8.0 10.0 0.01 0.01 0.00 98 903.2
20260831130513 70 16 7.0 10.0 0.00 0.00 0.00 98 903.2
20260831130414 70 31 7.0 10.0 0.00 0.00 0.00 98 903.2
20260831130013 70 31 6.0 10.0 0.00 0.00 0.00 98 903.3
20260831125814 70 10 5.0 9.0 0.00 0.00 0.00 98 903.2
20260831125513 70 23 2.0 6.0 0.00 0.00 0.00 98 903.2
20260831125214 70 38 2.0 7.0 0.00 0.00 0.00 98 903.2
20260831125013 70 360 6.0 10.0 0.00 0.00 0.00 98 903.2
20260831124614 70 29 0.0 6.0 0.00 0.00 0.00 98 903.2
20260831124513 70 31 4.0 9.0 0.01 0.01 0.00 98 903.2
20260831124015 70 28 1.0 6.0 0.00 0.00 0.00 98 903.2
20260831124013 70 27 1.0 6.0 0.00 0.00 0.00 98 903.2
20260831123414 70 11 1.0 3.0 0.00 0.00 0.00 98 903.2
20260831123014 70 49 3.0 5.0 0.00 0.00 0.00 98 903.2
20260831122513 70 71 2.0 8.0 0.00 0.00 0.00 98 903.2
20260831122214 70 24 4.0 8.0 0.00 0.00 0.00 98 903.2
20260831122013 70 38 4.0 8.0 0.00 0.00 0.00 98 903.2
20260831121614 70 31 4.0 7.0 0.00 0.00 0.00 98 903.2
20260831121513 70 52 4.0 7.0 0.00 0.00 0.00 98 903.2
20260831121014 70 24 3.0 6.0 0.00 0.00 0.00 98 903.1
20260831120513 70 51 0.0 5.0 0.00 0.00 0.00 98 903.1
20260831120414 70 72 4.0 7.0 0.00 0.00 0.00 98 903.1
20260831115814 70 35 0.0 5.0 0.00 0.00 0.00 98 903.1
20260831115214 70 8 5.0 7.0 0.00 0.00 0.00 98 903.1
20260831115013 70 11 6.0 7.0 0.00 0.00 0.00 98 903.1
20260831114614 70 350 6.0 7.0 0.00 0.00 0.00 98 903.0
20260831114512 70 23 5.0 7.0 0.00 0.00 0.00 98 903.0
20260831114014 70 7 0.0 4.0 0.00 0.00 0.00 98 903.1
20260831114012 70 6 0.0 4.0 0.00 0.00 0.00 98 903.1
20260831113513 70 231 0.0 1.0 0.00 0.00 0.00 98 903.1
20260831113414 70 51 0.0 1.0 0.00 0.00 0.00 98 903.1
20260831113012 70 83 1.0 1.0 0.00 0.00 0.00 98 903.1
20260831112814 70 74 0.0 1.0 0.00 0.00 0.00 98 903.0
20260831112512 70 315 1.0 3.0 0.00 0.00 0.00 97 903.0
20260831112214 70 342 1.0 3.0 0.00 0.00 0.00 97 902.9
20260831112012 70 328 1.0 3.0 0.00 0.00 0.00 97 902.9
20260831111614 70 314 0.0 2.0 0.00 0.00 0.00 97 902.7
20260831111512 70 322 1.0 3.0 0.00 0.00 0.00 97 902.8
20260831111012 70 360 0.0 1.0 0.00 0.00 0.00 97 902.6
20260831110512 70 288 1.0 4.0 0.00 0.00 0.00 97 902.5
20260831110413 70 287 1.0 4.0 0.00 0.00 0.00 97 902.6
20260831110012 70 279 2.0 4.0 0.00 0.00 0.00 98 902.6
20260831105813 70 346 3.0 4.0 0.00 0.00 0.00 98 902.6
20260831105515 70 341 3.0 4.0 0.00 0.00 0.00 98 902.5
20260831105214 70 329 3.0 4.0 0.00 0.00 0.00 98 902.6
20260831105012 70 316 1.0 4.0 0.00 0.00 0.00 98 902.6
20260831104613 70 339 1.0 4.0 0.00 0.00 0.00 98 902.5
20260831104512 70 30 1.0 4.0 0.00 0.00 0.00 98 902.5
20260831104014 70 304 2.0 4.0 0.00 0.00 0.00 98 902.5
20260831104012 70 313 2.0 4.0 0.00 0.00 0.00 98 902.5
20260831103512 70 354 2.0 4.0 0.00 0.00 0.00 98 902.4
20260831103413 70 309 1.0 4.0 0.00 0.00 0.00 98 902.4
20260831103012 70 21 1.0 2.0 0.00 0.00 0.00 98 902.4
20260831102815 70 254 1.0 3.0 0.00 0.00 0.00 98 902.4
20260831102512 70 360 0.0 3.0 0.00 0.00 0.00 98 902.3
20260831102213 70 319 1.0 3.0 0.00 0.00 0.00 98 902.4
20260831102012 70 266 1.0 4.0 0.00 0.00 0.00 98 902.3
20260831101613 70 351 2.0 4.0 0.00 0.00 0.00 98 902.3
20260831101512 70 358 2.0 4.0 0.00 0.00 0.00 98 902.3
20260831101012 70 357 2.0 3.0 0.00 0.00 0.00 98 902.3
20260831100512 70 288 0.0 1.0 0.00 0.00 0.00 98 902.2
20260831100012 70 212 1.0 1.0 0.00 0.00 0.00 99 902.1
20260831095813 70 232 0.0 1.0 0.00 0.00 0.00 99 902.1
20260831092512 70 195 3.0 6.0 0.00 0.00 0.00 98 902.0
20260831091511 70 142 4.0 6.0 0.01 0.01 0.00 98 902.0
20260831091013 70 164 3.0 6.0 0.00 0.00 0.00 98 902.0
20260831091011 70 163 3.0 6.0 0.00 0.00 0.00 98 902.0
20260831090511 70 211 0.0 4.0 0.00 0.00 0.00 98 902.0
20260831090413 71 154 4.0 7.0 0.00 0.00 0.00 98 902.0
20260831090011 71 132 3.0 6.0 0.00 0.00 0.00 98 902.0
20260831085813 71 182 2.0 6.0 0.00 0.00 0.00 98 901.9
20260831085511 71 148 4.0 6.0 0.00 0.00 0.00 97 901.9
20260831085212 71 173 3.0 6.0 0.00 0.00 0.00 98 901.8
20260831085011 71 169 2.0 5.0 0.00 0.00 0.00 98 901.9
20260831084612 71 156 2.0 3.0 0.00 0.00 0.00 98 901.9
20260831084513 71 140 1.0 3.0 0.00 0.00 0.00 98 901.9
20260831084013 72 213 0.0 6.0 0.00 0.00 0.00 98 901.8
20260831084011 72 209 0.0 6.0 0.00 0.00 0.00 98 901.8
20260831083511 71 176 3.0 6.0 0.00 0.00 0.00 98 901.8
20260831083412 71 209 3.0 6.0 0.00 0.00 0.00 98 901.8
20260831083011 72 101 1.0 5.0 0.00 0.00 0.00 98 901.9
20260831082812 71 171 3.0 5.0 0.00 0.00 0.00 98 901.8
20260831082511 71 147 3.0 5.0 0.00 0.00 0.00 98 901.8
20260831082212 71 132 1.0 5.0 0.00 0.00 0.00 98 901.8
20260831082011 70 181 3.0 6.0 0.00 0.00 0.00 98 901.8
20260831081612 70 77 3.0 6.0 0.00 0.00 0.00 98 901.8
20260831081511 71 108 4.0 6.0 0.00 0.00 0.00 98 901.8
20260831081013 70 111 4.0 6.0 0.00 0.00 0.00 98 901.8
20260831081011 70 113 4.0 6.0 0.00 0.00 0.00 98 901.8
20260831080512 71 81 5.0 8.0 0.00 0.00 0.00 98 901.8
20260831080412 71 119 6.0 8.0 0.00 0.00 0.00 98 901.8
20260831080011 71 72 4.0 5.0 0.00 0.00 0.00 98 901.8
20260831075812 71 89 3.0 5.0 0.00 0.00 0.00 98 901.9
20260831075511 71 56 5.0 6.0 0.00 0.00 0.00 98 901.8
20260831075212 71 71 3.0 5.0 0.00 0.00 0.00 98 901.8
20260831075011 71 97 4.0 5.0 0.00 0.00 0.00 98 901.8
20260831074612 71 79 3.0 5.0 0.00 0.00 0.00 98 901.8
20260831074511 71 76 2.0 5.0 0.00 0.00 0.00 98 901.8
20260831074012 71 81 1.0 5.0 0.00 0.00 0.00 98 901.8
20260831073511 71 20 1.0 4.0 0.00 0.00 0.00 98 901.9
20260831073412 71 76 1.0 3.0 0.00 0.00 0.00 98 901.9
20260831073012 71 88 0.0 0.0 0.00 0.00 0.00 98 901.9
20260831072812 71 87 3.0 5.0 0.00 0.00 0.00 98 901.9
20260831072510 71 74 3.0 5.0 0.00 0.00 0.00 98 902.0
20260831072212 71 55 4.0 5.0 0.00 0.00 0.00 98 902.1
20260831072011 70 86 4.0 5.0 0.00 0.00 0.00 98 902.0
20260831071612 70 76 4.0 5.0 0.00 0.00 0.00 98 902.1
20260831071510 70 71 1.0 5.0 0.00 0.00 0.00 98 902.0
20260831071012 70 89 2.0 5.0 0.00 0.00 0.00 98 902.0
20260831071010 70 73 2.0 5.0 0.00 0.00 0.00 98 902.0
20260831070510 71 77 3.0 5.0 0.00 0.00 0.00 98 902.0
20260831070412 71 71 3.0 4.0 0.00 0.00 0.00 98 902.0
20260831070010 71 63 2.0 4.0 0.00 0.00 0.00 98 902.0
20260831065811 71 72 1.0 3.0 0.00 0.00 0.00 98 902.0
20260831065510 71 104 1.0 4.0 0.01 0.01 0.00 98 902.0
20260831065212 71 61 1.0 4.0 0.01 0.01 0.00 98 902.0
20260831065010 71 83 2.0 4.0 0.01 0.01 0.00 98 902.0
20260831064612 71 108 2.0 3.0 0.01 0.01 0.00 98 902.0
20260831064510 70 101 2.0 3.0 0.01 0.01 0.00 98 902.0
20260831064012 70 77 2.0 5.0 0.03 0.03 0.00 98 902.1
20260831064010 70 79 2.0 5.0 0.03 0.03 0.00 98 902.1
20260831063510 70 83 2.0 5.0 0.01 0.01 0.00 98 902.2
20260831063411 70 85 0.0 3.0 0.00 0.00 0.00 98 902.2
20260831063010 70 102 4.0 5.0 0.06 0.06 0.00 98 902.3
20260831062812 71 87 3.0 5.0 0.05 0.05 0.00 98 902.3
20260831062510 70 82 4.0 5.0 0.03 0.03 0.00 98 902.4
20260831062211 71 107 3.0 5.0 0.00 0.00 0.00 98 902.4
20260831062010 71 96 0.0 2.0 0.00 0.00 0.00 98 902.4
20260831061611 70 74 2.0 4.0 0.01 0.01 0.00 98 902.4
20260831061510 70 73 0.0 4.0 0.00 0.00 0.00 98 902.5
20260831061012 71 71 2.0 6.0 0.00 0.00 0.00 98 902.5
20260831061010 71 68 2.0 6.0 0.00 0.00 0.00 98 902.5
20260831060510 71 100 3.0 6.0 0.00 0.00 0.00 98 902.5
20260831060411 71 35 2.0 6.0 0.00 0.00 0.00 98 902.5
20260831060010 71 55 3.0 6.0 0.00 0.00 0.00 98 902.6
20260831055811 71 23 3.0 4.0 0.00 0.00 0.00 98 902.5
20260831055510 71 58 0.0 4.0 0.00 0.00 0.00 98 902.5
20260831055211 70 65 2.0 6.0 0.00 0.00 0.00 98 902.6
20260831055010 70 43 5.0 7.0 0.00 0.00 0.00 98 902.6
20260831054611 70 45 5.0 6.0 0.00 0.00 0.00 98 902.6
20260831054510 70 65 5.0 6.0 0.00 0.00 0.00 98 902.6
20260831054011 70 59 4.0 6.0 0.00 0.00 0.00 98 902.6
20260831054009 70 60 4.0 6.0 0.00 0.00 0.00 98 902.7
20260831053510 70 45 4.0 6.0 0.00 0.00 0.00 98 902.6
20260831053411 70 48 4.0 6.0 0.00 0.00 0.00 98 902.7
20260831053009 70 77 4.0 7.0 0.00 0.00 0.00 98 902.7
20260831052811 70 66 5.0 7.0 0.00 0.00 0.00 98 902.8
20260831052509 70 60 4.0 7.0 0.00 0.00 0.00 98 902.8
20260831052211 69 85 5.0 7.0 0.00 0.00 0.00 97 902.9
20260831052010 69 63 4.0 5.0 0.00 0.00 0.00 97 902.9
20260831051611 70 81 3.0 6.0 0.00 0.00 0.00 98 903.0
20260831051011 70 93 6.0 9.0 0.01 0.01 0.00 98 903.1
20260831051009 70 77 6.0 9.0 0.01 0.01 0.00 98 903.1
20260831050509 70 65 6.0 9.0 0.01 0.01 0.00 98 903.1
20260831050411 70 59 6.0 9.0 0.01 0.01 0.00 98 903.1
20260831045811 70 51 6.0 10.0 0.05 0.05 0.00 97 903.2
20260831045509 69 64 8.0 10.0 0.03 0.03 0.00 97 903.3
20260831045211 69 53 8.0 10.0 0.02 0.02 0.00 97 903.3
20260831045009 69 46 8.0 10.0 0.01 0.01 0.00 97 903.3
20260831044610 70 36 6.0 9.0 0.00 0.00 0.00 97 903.4
20260831044011 70 58 4.0 9.0 0.00 0.00 0.00 97 903.5
20260831044009 70 60 4.0 9.0 0.00 0.00 0.00 97 903.4
20260831043509 70 40 3.0 6.0 0.01 0.01 0.00 97 903.5
20260831043410 70 69 3.0 6.0 0.01 0.01 0.00 97 903.5
20260831043009 71 43 3.0 6.0 0.01 0.01 0.00 96 903.5
20260831042811 71 20 2.0 6.0 0.00 0.00 0.00 96 903.6
20260831042509 71 95 1.0 4.0 0.00 0.00 0.00 96 903.6
20260831042210 71 32 3.0 4.0 0.00 0.00 0.00 96 903.6
20260831042009 71 23 1.0 4.0 0.00 0.00 0.00 96 903.7
20260831041610 72 257 0.0 0.0 0.00 0.00 0.00 96 903.7
20260831041509 72 46 1.0 5.0 0.00 0.00 0.00 96 903.7
20260831041011 72 20 0.0 1.0 0.00 0.00 0.00 96 903.7
20260831041009 72 19 0.0 1.0 0.00 0.00 0.00 96 903.7